Historique des stations

Station météo de Le Grand-Pressigny

Altitude de la station : 93 m







Données météorologiques pour le 04/12/2022
Date
Heure
Températures Humidité Point de rosée Vitesse
du vent
Direction Rafales Windchill Pression Pluviométrie
Cumul
Date
Heure
Températures Humidité Point de rosée Vitesse
du vent
Direction Rafales Windchill Pression Pluviométrie
Cumul
04/12/2022 17:505.4 °C91 %4.1 °C---01013 hPa0.2 mm
04/12/2022 17:305.6 °C91 %4.2 °C---01013 hPa0.2 mm
04/12/2022 17:205.5 °C91 %4.1 °C---01013 hPa0.2 mm
04/12/2022 17:005.6 °C91 %4.2 °C---01013 hPa0.2 mm
04/12/2022 16:505.6 °C91 %4.2 °C---01013 hPa0.2 mm
04/12/2022 16:305.6 °C90 %4.1 °C---01013 hPa0.2 mm
04/12/2022 16:205.6 °C91 %4.2 °C---01013 hPa0.2 mm
04/12/2022 16:005.5 °C91 %4.1 °C---01013 hPa0.2 mm
04/12/2022 15:505.4 °C91 %4.1 °C---01013 hPa0.2 mm
04/12/2022 15:305.4 °C91 %4.1 °C-3 km/h01013 hPa0.2 mm
04/12/2022 15:205.4 °C92 %4.2 °C-5 km/h01013 hPa0.2 mm
04/12/2022 15:005.2 °C91 %3.9 °C2 km/hESE5 km/h01013 hPa0.2 mm
04/12/2022 14:505.3 °C92 %4.1 °C3 km/hESE6 km/h01013 hPa0.2 mm
04/12/2022 14:305.2 °C92 %4 °C3 km/hE8 km/h01012 hPa0.2 mm
04/12/2022 14:205.2 °C92 %4 °C3 km/hE6 km/h01012 hPa0.2 mm
04/12/2022 14:005.1 °C93 %4 °C3 km/hESE6 km/h01012 hPa0.2 mm
04/12/2022 13:504.9 °C93 %3.9 °C2 km/hESE6 km/h01012 hPa0.2 mm
04/12/2022 13:304.9 °C93 %3.9 °C5 km/hESE8 km/h01012 hPa0.2 mm
04/12/2022 13:204.9 °C93 %3.9 °C3 km/hSE10 km/h01012 hPa0.2 mm
04/12/2022 13:004.8 °C93 %3.8 °C6 km/hENE11 km/h01012 hPa0.2 mm
04/12/2022 12:504.8 °C93 %3.7 °C3 km/hE11 km/h01012 hPa0.2 mm
04/12/2022 12:304.8 °C93 %3.7 °C3 km/hE6 km/h01012 hPa0.2 mm
04/12/2022 12:204.7 °C93 %3.6 °C3 km/hE8 km/h01012 hPa0.2 mm
04/12/2022 12:004.5 °C94 %3.6 °C---01012 hPa0.2 mm
04/12/2022 11:504.4 °C94 %3.6 °C---01012 hPa0.2 mm
04/12/2022 11:304.3 °C94 %3.5 °C---01012 hPa0.2 mm
04/12/2022 11:204.2 °C94 %3.3 °C---01012 hPa0.2 mm
04/12/2022 11:004.1 °C94 %3.2 °C---01012 hPa0.2 mm
04/12/2022 10:504.1 °C94 %3.2 °C---01012 hPa0.2 mm
04/12/2022 10:303.9 °C94 %3.1 °C---01012 hPa0.2 mm
04/12/2022 10:203.9 °C94 %3 °C---01011 hPa0.2 mm
04/12/2022 10:003.8 °C94 %2.9 °C---01011 hPa0.2 mm
04/12/2022 09:503.8 °C94 %2.9 °C---01012 hPa0.2 mm
04/12/2022 09:303.7 °C94 %2.8 °C-3 km/h01011 hPa0.2 mm
04/12/2022 09:203.7 °C94 %2.8 °C-5 km/h01011 hPa0.2 mm
04/12/2022 09:003.7 °C94 %2.8 °C2 km/hSE5 km/h01011 hPa0.2 mm
04/12/2022 08:503.7 °C94 %2.8 °C2 km/hSE5 km/h01011 hPa0.2 mm
04/12/2022 08:303.7 °C94 %2.8 °C2 km/hE6 km/h01011 hPa0.2 mm
04/12/2022 08:203.6 °C94 %2.7 °C2 km/hESE11 km/h01011 hPa0.2 mm
04/12/2022 08:003.6 °C94 %2.7 °C3 km/hE10 km/h01011 hPa0.2 mm
04/12/2022 07:503.6 °C94 %2.7 °C3 km/hE10 km/h01011 hPa0.2 mm
04/12/2022 07:303.6 °C94 %2.7 °C3 km/hESE5 km/h01011 hPa0.2 mm
04/12/2022 07:203.6 °C94 %2.7 °C2 km/hE6 km/h01011 hPa0.2 mm
04/12/2022 07:003.6 °C93 %2.5 °C3 km/hESE6 km/h01011 hPa0.2 mm
04/12/2022 06:503.6 °C93 %2.5 °C3 km/hESE10 km/h01011 hPa0.2 mm
04/12/2022 06:303.6 °C93 %2.5 °C3 km/hE13 km/h01011 hPa0.2 mm
04/12/2022 06:203.6 °C93 %2.5 °C5 km/hE11 km/h01011 hPa0.2 mm
04/12/2022 06:003.6 °C93 %2.5 °C3 km/hE6 km/h01011 hPa0.2 mm
04/12/2022 05:503.6 °C93 %2.5 °C5 km/hE11 km/h01011 hPa0.2 mm
04/12/2022 05:303.5 °C93 %2.5 °C3 km/hE11 km/h01011 hPa0.2 mm
04/12/2022 05:203.5 °C93 %2.5 °C3 km/hENE10 km/h01011 hPa0.2 mm
04/12/2022 05:003.4 °C93 %2.4 °C2 km/hE11 km/h01011 hPa0.2 mm
04/12/2022 04:503.5 °C93 %2.5 °C5 km/hESE11 km/h01011 hPa0.2 mm
04/12/2022 04:303.5 °C93 %2.5 °C6 km/hE11 km/h01011 hPa0.2 mm
04/12/2022 04:203.5 °C93 %2.5 °C2 km/hESE11 km/h01011 hPa0.2 mm
04/12/2022 04:003.5 °C94 %2.6 °C5 km/hE10 km/h01011 hPa0.2 mm
04/12/2022 03:503.4 °C94 %2.6 °C6 km/hE11 km/h01011 hPa0.2 mm
04/12/2022 03:303.4 °C94 %2.6 °C2 km/hE11 km/h01011 hPa0.2 mm
04/12/2022 03:203.4 °C94 %2.6 °C3 km/hE6 km/h01011 hPa0.2 mm
04/12/2022 03:003.4 °C94 %2.5 °C2 km/hESE6 km/h01011 hPa0.2 mm
04/12/2022 02:503.4 °C94 %2.5 °C5 km/hESE10 km/h01011 hPa0.2 mm
04/12/2022 02:303.4 °C94 %2.5 °C3 km/hESE13 km/h01012 hPa0.2 mm
04/12/2022 02:203.4 °C94 %2.5 °C3 km/hE10 km/h01012 hPa0.2 mm
04/12/2022 02:003.4 °C94 %2.6 °C2 km/hE11 km/h01012 hPa0.2 mm
04/12/2022 01:503.4 °C94 %2.6 °C8 km/hESE13 km/h01012 hPa0.2 mm
04/12/2022 01:303.6 °C94 %2.7 °C3 km/hE8 km/h01012 hPa0.0 mm
04/12/2022 01:203.6 °C94 %2.7 °C2 km/hE10 km/h01012 hPa0.0 mm
04/12/2022 01:003.6 °C94 %2.7 °C3 km/hENE8 km/h01012 hPa0.0 mm
04/12/2022 00:503.6 °C94 %2.7 °C2 km/hE5 km/h01012 hPa2.6 mm
04/12/2022 00:303.7 °C93 %2.6 °C2 km/hENE13 km/h01012 hPa2.4 mm
04/12/2022 00:203.7 °C93 %2.6 °C5 km/hESE10 km/h01012 hPa2.4 mm
04/12/2022 00:003.8 °C93 %2.8 °C3 km/hESE15 km/h01012 hPa2.4 mm


Minima :

Température : 3.4 °C
Humidité : 90 %
Point de rosée : 2.4 °C
Vent moyen : 2 km/h
Windchill : 0
Pression atm. : 1011 hPa
Maxima :

Température : 5.6 °C
Humidité : 94 %
Point de rosée : 4.2 °C
Vent moyen : 8 km/h
Windchill : 0
Pression atm. : 1013 hPa
Rafales max : 15 km/h
Cumul de pluie sur 24H : 2.6 mm

Le Grand-Pressigny est une commune du département Indre-et-Loire (37).
La station météorologique du réseau de l'association la plus proche de Le Grand-Pressigny est celle de Les Ormes



Icône Facebook Association Météo Centre Icône Twitter Association Météo Centre Icône Chaîne Youtube Association Météo Centre Icône contact Association Météo Centre Icône Insta Association Météo Centre